Probability
0 0 0 0 0 0 0 0 0 0 0 2 5 9 11 17 27 36 42 42 43 48 48 43 40 36 29 24 25 25 21 18 16 15 15 14 13 11 9 8 7 6 5 5
0 0 0 0 0 0 0 0 0 0 1 3 7 11 13 20 29 38 44 45 44 47 48 45 41 35 30 27 27 26 23 20 19 17 15 13 10 9 8 6 5 4 4 4
0 0 0 0 0 0 0 1 1 1 3 5 10 14 17 24 33 40 46 49 48 48 48 46 43 38 35 33 31 28 25 23 22 20 17 13 9 7 6 4 4 3 3 3
0 0 0 0 1 1 1 3 3 4 5 8 13 16 20 28 37 43 47 51 52 50 49 47 45 42 37 34 31 29 26 24 24 22 18 14 10 7 5 4 4 3 3 3
0 0 0 1 3 3 4 6 7 9 11 14 16 16 22 34 45 50 52 54 54 52 49 47 46 43 36 31 29 27 26 25 24 21 17 13 10 7 6 6 5 4 3 3
0 0 1 3 7 8 7 10 16 19 21 22 21 21 30 45 54 57 58 57 55 53 50 46 43 41 36 32 28 26 25 24 22 19 16 13 9 7 6 6 6 5 4 4
0 0 2 6 12 14 16 22 29 33 32 31 32 34 44 55 58 59 61 62 59 55 51 46 42 40 38 35 31 26 24 22 19 16 13 11 8 7 6 6 6 6 5 5
2 2 6 14 22 28 35 41 43 43 41 39 42 46 51 57 60 61 64 65 62 57 52 47 43 41 39 36 31 25 21 19 17 13 10 8 7 6 6 6 6 6 6 6
11 11 16 26 36 45 51 54 52 50 46 43 45 49 53 58 62 65 67 65 60 55 51 46 42 40 37 33 28 23 20 17 14 10 8 6 6 5 4 5 6 6 5 5
24 23 25 33 42 48 52 55 56 53 49 46 45 49 55 59 63 66 67 63 58 53 48 42 39 37 34 30 26 22 19 16 12 10 8 7 6 4 4 4 4 4 3 2
28 27 29 35 40 43 47 52 57 56 52 47 46 48 52 55 58 61 61 58 55 52 46 40 36 33 29 25 22 19 17 14 12 10 9 8 7 5 3 2 2 2 1 0
24 25 29 34 39 42 45 50 54 56 53 48 44 45 48 50 52 54 54 52 50 48 44 39 34 28 24 19 16 14 13 11 11 10 9 8 7 4 2 1 1 1 0 0
19 22 26 30 35 40 43 46 49 51 50 47 42 40 44 48 49 49 48 47 45 42 39 34 29 23 19 14 10 9 9 9 8 8 8 7 6 4 1 0 0 0 0 0
15 19 24 27 31 35 38 39 41 43 44 42 38 37 40 43 45 45 44 43 41 38 33 26 20 16 12 9 7 7 6 5 5 6 6 6 5 4 1 0 0 0 0 0
13 17 21 23 24 27 29 30 31 33 35 35 33 33 36 40 41 41 41 40 37 33 27 20 13 9 6 5 5 6 5 3 2 3 4 4 3 2 0 0 0 0 0 0
11 13 16 16 15 17 21 23 24 25 26 27 27 29 34 37 38 39 40 39 36 30 23 17 11 7 5 3 3 4 3 1 0 1 1 1 1 0 0 0 0 0 0 0
7 8 8 7 6 8 13 18 21 21 21 23 25 27 30 31 34 36 39 39 37 30 21 16 10 6 4 2 2 2 1 0 0 0 0 0 0 0 0 0 0 0 0 0
4 4 3 2 2 3 6 11 14 15 16 18 21 24 26 26 27 30 32 33 32 29 21 13 7 3 2 2 2 1 0 0 0 0 0 0 0 0 0 0 0 0 0 0
2 2 2 2 2 2 2 4 7 8 10 12 16 20 22 23 22 22 23 25 26 23 18 10 3 1 0 1 1 0 0 0 0 0 0 0 0 0 0 0 0 0 0 0
1 1 1 2 2 1 1 2 3 5 7 9 11 14 16 17 16 15 17 21 22 18 12 7 2 1 0 0 0 0 0 0 0 0 0 0 0 0 0 0 0 0 0 0
1 0 0 1 1 0 0 1 1 2 4 6 8 10 11 11 10 11 13 16 15 12 7 4 3 2 0 0 0 0 0 0 0 0 0 0 0 0 0 0 0 0 0 0
2 1 0 0 0 0 0 0 0 1 2 3 5 6 7 8 8 9 10 10 7 5 3 3 3 1 0 0 0 0 0 0 0 0 0 0 0 0 0 0 0 0 0 0
3 2 1 0 0 0 0 0 0 1 2 3 3 4 4 6 7 7 6 4 2 1 1 2 1 0 0 0 0 0 0 0 0 0 0 0 0 0 0 0 0 0 0 0
3 3 2 0 0 0 0 0 0 2 3 3 3 2 3 4 5 4 2 1 0 0 0 0 0 0 0 0 0 0 0 0 0 0 0 0 0 0 0 0 0 0 0 0
2 2 1 0 0 0 0 0 0 1 2 2 1 1 2 2 2 1 1 0 0 0 0 0 0 0 0 0 0 0 0 0 0 0 0 0 0 0 0 0 0 0 0 0
1 1 0 0 0 0 0 0 0 0 1 1 0 0 1 1 0 0 0 0 0 0 0 1 1 0 0 0 0 0 0 0 0 0 0 0 0 0 0 0 0 0 0 0
0 0 0 0 0 0 0 0 0 0 0 0 0 0 0 0 0 0 0 0 0 0 0 1 1 1 0 0 0 0 0 0 0 0 0 0 0 0 0 0 0 0 0 0
Wind_Speed
10 6 10 13 15 16 16 13 11 9 9 6 4 4 6 8 10 11 11 12 11 11 11 10 10 9 8 8 8 8 7 7 7 6 6 6 6 5 5 5 6 5 5 6
11 9 10 12 14 15 15 13 12 10 7 2 2 4 6 9 11 12 12 12 12 12 11 11 10 10 9 9 8 8 8 7 7 6 6 6 6 6 6 6 6 6 6 6
12 11 11 14 14 14 13 12 12 11 7 4 4 5 7 9 11 11 12 12 12 12 11 10 10 10 10 9 9 8 8 7 7 6 6 6 6 6 6 7 7 7 7 7
10 10 15 7 5 9 11 10 9 7 3 3 3 4 4 6 9 10 11 12 12 12 12 11 11 10 10 10 9 9 8 8 7 7 7 7 6 6 6 6 6 6 6 7
10 13 12 7 5 7 10 8 6 7 4 2 3 6 6 5 7 9 10 10 10 11 12 12 11 11 11 10 9 9 9 8 7 7 7 7 7 7 6 6 6 6 6 6
10 13 13 8 6 3 7 8 3 3 4 3 6 7 5 6 6 8 9 9 10 11 12 12 11 11 11 10 9 9 8 8 7 7 7 7 7 7 6 6 6 6 6 6
12 11 7 3 4 7 10 3 2 1 2 4 4 2 4 7 7 8 10 10 11 11 10 10 11 11 10 9 9 8 8 8 7 7 7 7 7 6 6 6 6 6 6 6
11 13 7 4 5 4 2 4 1 0 1 2 2 3 6 8 9 10 10 11 11 10 9 9 10 10 10 9 9 9 9 8 8 7 7 7 7 7 6 6 7 6 5 5
4 1 5 3 2 4 3 2 1 1 1 1 4 5 6 8 8 9 10 10 10 10 10 9 9 9 10 9 10 10 9 9 8 8 6 7 7 7 6 5 4 5 4 4
2 3 3 3 3 3 2 2 2 1 1 3 4 5 6 7 8 8 9 9 9 10 10 9 9 8 8 9 10 10 9 9 8 8 7 6 5 5 4 4 4 4 4 4
3 2 3 3 2 2 2 2 2 3 2 4 5 6 6 6 7 7 8 8 8 8 9 9 9 8 8 9 10 10 9 8 8 7 7 6 5 3 2 4 2 1 3 3
1 2 1 2 1 1 1 2 2 3 4 4 4 5 5 5 6 7 8 8 8 8 9 9 9 9 8 8 9 10 9 8 7 7 6 6 7 6 10 7 7 7 7 4
1 1 1 1 1 1 2 2 2 3 4 4 4 4 4 5 5 6 7 7 8 8 8 8 9 9 8 8 8 8 8 7 6 6 7 6 7 7 7 6 6 6 5 5
0 0 1 0 1 1 2 2 2 3 4 3 3 4 4 5 5 5 6 6 7 7 8 8 8 8 8 8 8 8 8 7 6 6 6 6 6 6 6 7 7 6 4 4
2 2 2 1 0 1 1 2 2 3 3 3 3 3 4 5 5 5 5 6 7 7 7 7 7 7 8 8 9 8 7 7 6 6 6 6 6 6 6 6 6 6 7 6
2 2 2 2 1 0 1 1 2 2 2 2 2 2 3 4 4 5 5 6 7 7 7 7 7 8 8 9 9 7 6 7 7 6 6 6 6 6 6 6 6 5 5 6
4 4 3 3 2 1 1 0 1 1 1 1 1 2 3 3 4 4 5 5 5 6 6 7 8 8 8 9 8 7 7 8 8 7 6 6 6 6 6 6 6 5 4 4
5 4 4 3 2 2 1 0 0 0 0 0 1 2 2 3 4 4 4 4 5 5 6 7 8 8 8 8 7 6 7 8 8 7 6 6 6 6 6 5 6 6 5 6
4 4 4 3 3 3 2 1 1 1 1 1 1 2 2 2 3 3 4 5 5 5 5 6 7 8 8 8 6 5 7 8 7 6 6 6 6 6 6 6 6 5 5 5
4 4 4 3 3 3 3 2 2 2 1 1 1 2 2 2 3 4 4 4 3 2 4 6 7 7 7 8 7 6 7 8 8 7 7 7 7 6 6 6 6 5 5 5
4 4 4 3 3 3 2 2 2 2 2 2 2 2 2 2 3 3 4 3 2 2 4 6 5 5 6 6 7 6 7 7 7 7 7 7 7 6 6 6 6 6 5 5
2 2 2 2 1 1 2 2 2 2 2 2 3 3 3 3 4 3 3 2 3 4 4 5 5 5 6 7 6 6 6 6 6 6 6 6 6 6 6 6 6 5 5 5
1 1 1 1 1 1 2 2 2 2 2 3 3 3 4 3 3 3 3 2 3 4 4 3 6 8 7 6 5 5 6 7 6 6 6 6 6 6 5 6 5 5 5 5
1 1 1 1 2 2 2 2 2 2 2 3 3 3 3 3 3 2 2 4 4 5 3 6 8 8 7 5 5 5 5 5 5 5 6 5 5 5 5 5 5 5 5 5
1 1 2 2 2 2 2 2 3 3 3 2 2 3 3 2 2 2 3 4 6 5 5 7 8 7 6 5 5 5 4 4 4 4 5 5 5 5 5 5 5 4 4 4
2 2 1 1 1 2 2 2 2 2 2 2 2 2 2 2 3 3 3 5 6 5 5 5 6 6 5 5 5 5 5 5 5 4 4 4 5 4 4 4 5 4 4 3
2 2 2 2 1 2 1 2 2 2 2 2 2 2 2 2 3 4 4 5 5 5 4 5 5 5 4 5 5 5 5 5 5 4 4 4 4 4 4 5 4 4 3 3
Wind_Direction
247 245 213 209 206 209 223 235 242 235 241 237 209 190 170 166 163 161 162 162 161 159 152 152 150 150 149 146 144 141 137 129 123 120 115 111 104 97 92 88 85 80 77 72
224 222 223 223 216 211 221 231 239 246 238 218 168 161 168 172 172 171 170 167 164 160 156 158 156 156 154 151 146 143 138 130 126 125 119 112 105 101 95 88 84 82 78 75
217 208 216 221 217 213 216 224 233 236 234 178 183 186 186 182 182 179 173 169 165 161 161 160 159 156 154 151 148 143 136 132 133 132 121 113 110 105 99 95 91 86 83 80
217 201 223 212 206 220 220 222 231 245 232 200 202 183 177 183 183 177 172 167 165 162 159 158 154 152 149 147 146 142 139 137 136 131 125 120 114 105 99 95 94 90 86 85
219 214 217 182 179 205 212 217 227 237 232 190 155 168 161 171 181 174 168 163 160 159 155 152 152 151 150 149 147 146 144 144 140 136 131 128 122 115 110 107 102 98 90 86
220 226 221 191 160 191 222 210 170 225 216 191 187 213 157 153 162 156 152 153 152 150 149 150 151 151 153 151 150 148 144 142 140 138 136 131 125 122 117 114 110 106 96 89
220 226 220 118 143 185 216 182 92 210 212 206 216 314 107 148 151 148 147 146 148 147 149 149 150 154 156 152 149 143 140 138 138 135 133 132 129 125 127 124 116 109 107 100
219 227 202 101 176 208 28 33 45 287 233 206 177 114 132 141 143 144 144 146 150 148 146 147 153 159 158 151 144 140 139 139 138 139 140 136 133 130 130 131 131 128 126 120
242 243 64 76 65 38 9 348 344 324 332 173 152 142 137 138 139 142 143 146 149 147 143 146 155 163 157 149 145 145 145 144 142 141 137 139 141 140 144 154 152 146 146 136
199 124 94 96 79 44 13 359 358 5 108 151 149 141 136 136 137 140 142 145 147 148 149 150 154 156 150 148 150 150 148 145 146 146 143 140 147 151 153 155 154 154 147 136
198 138 133 127 62 35 35 34 51 76 106 134 142 143 141 139 137 138 140 143 149 153 153 151 149 147 146 151 153 152 150 150 152 150 144 140 125 84 107 85 55 116 142 142
203 131 213 122 48 34 64 62 66 83 95 108 128 138 140 137 136 141 143 147 153 155 154 150 147 146 148 156 160 158 156 159 159 153 151 149 138 117 55 63 64 51 39 44
347 352 2 103 47 27 45 54 65 86 100 110 119 133 136 135 135 138 143 149 153 155 152 151 149 148 152 158 162 165 162 162 159 156 159 159 155 152 142 110 81 71 66 63
146 151 178 155 26 35 47 65 82 89 98 105 118 128 131 133 134 141 146 149 150 148 148 151 152 152 155 159 162 164 164 157 162 161 162 162 163 163 161 158 155 145 128 124
229 259 264 282 314 91 83 104 110 103 100 103 112 124 136 139 140 142 143 146 146 147 149 151 152 153 157 162 165 168 168 166 167 162 164 166 167 166 162 161 158 153 151 151
225 216 214 214 192 176 154 131 119 103 95 97 108 122 133 136 138 140 148 157 159 158 157 157 158 158 162 165 167 169 167 156 165 170 168 168 169 166 163 166 166 165 168 164
215 212 217 224 216 228 226 173 111 126 118 112 113 131 146 150 152 154 161 164 162 158 162 163 162 162 166 170 175 172 165 162 174 180 174 172 169 167 167 172 173 172 168 145
231 227 230 239 240 236 240 231 300 354 356 347 163 162 176 185 187 179 171 162 161 164 167 167 163 163 168 175 179 175 170 169 180 180 170 170 167 168 173 175 175 174 165 158
216 219 220 225 240 256 254 247 269 286 289 253 205 189 192 202 190 180 181 185 182 178 174 165 160 173 171 170 174 178 176 174 173 171 166 159 174 176 177 179 176 174 175 172
201 201 205 218 227 244 253 250 251 259 259 244 227 203 194 189 182 182 190 199 202 188 165 162 176 179 171 170 183 181 178 176 173 171 172 175 180 179 181 179 174 177 186 186
199 193 200 216 225 238 249 252 245 240 242 231 224 218 207 201 196 188 194 196 168 156 154 156 179 174 172 166 189 185 179 180 178 176 177 178 178 180 181 182 184 187 193 194
203 198 202 207 217 250 263 255 232 223 227 221 220 219 208 203 199 193 196 199 155 150 171 173 173 149 151 163 183 179 175 178 181 179 180 182 184 185 185 186 187 191 193 196
228 210 212 227 260 265 270 257 232 217 218 223 220 221 221 218 215 205 192 172 163 169 185 157 131 134 153 176 178 179 177 179 181 182 181 183 186 183 179 182 186 189 191 195
250 253 251 250 251 247 245 255 254 227 219 226 224 226 227 209 207 216 165 140 149 165 158 124 135 150 176 185 178 176 173 175 177 179 175 172 171 173 174 178 182 187 191 201
236 236 233 236 245 245 233 233 230 223 220 211 203 206 216 207 193 174 156 147 149 158 142 139 151 170 187 172 163 165 168 166 165 168 169 170 174 174 177 183 185 187 189 192
255 253 258 269 276 267 246 230 221 208 199 195 193 176 166 159 158 159 154 150 149 150 145 147 158 177 177 163 158 158 154 152 159 169 162 168 173 171 172 179 186 190 184 182
232 234 230 229 238 255 249 225 213 204 188 172 165 165 166 163 152 148 147 147 150 152 147 149 158 164 159 155 151 156 156 154 156 156 158 166 169 169 167 178 182 177 180 180